Starlink 11119

operational
NORAD ID: 60121 Int'l Des: 2024-118 Owner: SPXS Country: US Constellation: starlink
LEOCIRCULAR

Starlink 11119について

説明を読み込み中...

リアルタイム位置

3D地球を読み込み中...

次回通過

高度履歴

Altitude vs Time

uPlot chart will show altitude changes over time

軌道要素

1 60121U 24118J 25304.93061486 .00000279 00000-0 71605-5 0 9999
2 60121 53.1576 135.7439 0001214 111.5907 248.5241 15.69704034 77776
Epoch: Oct 31, 2025 • Age: 31 hours

現在のステータス

高度 359.4 km
速度 7.70 km/s
衛星直下点 17.47°N, 170.52°E
打ち上げ日 Jun 24, 2024
運用期間 1.3 years
タイプ internet

技術仕様

分類 Payload
質量 960.00 kg
乾燥質量 910.00 kg
総質量 960.00 kg
長さ 0.30 m
直径 4.10 m
スパン 29.00 m
形状 Box + pan
製造者 SPXS
バスタイプ Starlink V2MD
フェーズステータス In Orbit
所有者/国 SPXS/US

大規模コンステレーション

Loading constellations...